Simultaneous Nadir Overpasses (SNOs) Predictions

Prediction of SNOs between FY3D and AQUA Satellite Orbit:

Table of predicted SNOs for the next 14.0 days since TLE Epoch: 4/1/2023
Index Date (FY3D) Time (FY3D) Lat,Lon (FY3D) SZA (FY3D ) Date (AQUA) Time (AQUA) Lat,Lon (AQUA) SZA (AQUA ) Distance(km) Time Diff (sec)
1 04/03/2023 02:25:13 -78.34, -54.34 106.25 04/03/2023 02:25:57 -78.33, -54.36 106.26 0.44 44
2 04/03/2023 03:15:46 77.79, 115.92 73.04 04/03/2023 03:15:10 77.80, 115.82 73.06 2.34 36
3 04/05/2023 16:10:56 78.48, -81.58 72.96 04/05/2023 16:12:08 78.49, -81.65 72.94 1.66 72
4 04/05/2023 17:01:29 -78.02, 88.35 107.67 04/05/2023 17:01:22 -78.03, 88.27 107.66 2.05 7
5 04/08/2023 06:47:12 78.22, 60.87 71.61 04/08/2023 06:47:31 78.23, 60.82 71.62 1.25 19
6 04/08/2023 07:37:44 -77.71,-129.10 109.06 04/08/2023 07:36:44 -77.71,-129.15 109.04 1.42 60
7 04/10/2023 20:32:52 -78.34, 33.82 109.20 04/10/2023 20:33:37 -78.34, 33.74 109.21 1.87 45
8 04/10/2023 21:23:30 78.01,-157.01 70.35 04/10/2023 21:22:54 78.00,-156.95 70.36 1.55 36
9 04/13/2023 10:18:33 78.45, 6.81 69.99 04/13/2023 10:19:41 78.45, 6.71 69.99 2.45 68



Historial Predications of SNOs between FY3D and AQUA
